Date String (YYYY-MM-DD hh:mm:ss) UTC,Instrument flags,Ambient pressure (hPa),Sample flow (lpm),Bypass flow (lpm),Sample temperature (°C),Ambient temperature (°C),ASC tube jacket temperature (°C),LED temperature (°C),Box temperature (°C),Sample RH (%),Span deviation,Mass concentration (μg/m³),Mass concentration (μg/m³),Mass concentration (μg/m³)
DateTimeUTC,F1_M11,P_M11,Q1_M11,Q2_M11,T1_M11,T2_M11,T3_M11,T4_M11,T5_M11,U1_M11,ZSPAN_M11,X0_M11,X2_M11,X1_M11
2021-10-13 23:00:00,,0818.0,4.99,0.00,26.1,25.2,00.0,35.2,27.9,10.3,0000.0,0002.61,0001.64,0001.22
2021-10-13 23:01:00,,0818.0,5.00,0.00,26.1,25.2,00.0,35.2,27.9,10.4,0000.0,0002.78,0001.69,0001.22
2021-10-13 23:02:00,,0818.0,4.99,0.00,26.1,25.2,00.0,35.2,27.9,10.4,0000.0,0002.92,0001.72,0001.23
2021-10-13 23:03:00,,0818.0,4.99,0.00,26.1,25.1,00.0,35.2,27.9,10.3,0000.0,0003.66,0001.77,0001.24
2021-10-13 23:04:00,,0818.0,5.00,0.00,26.1,25.1,00.0,35.2,27.9,10.2,0000.0,0004.13,0001.79,0001.24
2021-10-13 23:05:00,,0818.1,4.99,0.00,26.1,25.2,00.0,35.2,27.9,10.1,0000.0,0004.07,0001.77,0001.23
2021-10-13 23:06:00,,0818.2,5.00,0.00,26.1,25.2,00.0,35.2,27.9,10.2,0000.0,0004.01,0001.74,0001.23
2021-10-13 23:07:00,,0818.1,5.00,0.00,26.1,25.2,00.0,35.2,27.8,10.3,0000.0,0004.06,0001.76,0001.22
2021-10-13 23:08:00,,0818.0,5.01,0.00,26.0,25.2,00.0,35.2,27.8,10.3,0000.0,0004.02,0001.76,0001.22
2021-10-13 23:09:00,,0818.0,5.00,0.00,26.1,25.2,00.0,35.2,27.9,10.2,0000.0,0004.87,0001.77,0001.23
2021-10-13 23:10:00,,0818.1,4.99,0.00,26.0,25.1,00.0,35.2,27.8,10.2,0000.0,0005.01,0001.81,0001.24
2021-10-13 23:11:00,,0818.1,4.99,0.00,26.1,25.2,00.0,35.2,27.9,10.2,0000.0,0005.06,0001.82,0001.24
2021-10-13 23:12:00,,0818.2,5.01,0.00,26.0,25.2,00.0,35.2,27.8,10.2,0000.0,0004.89,0001.78,0001.25
2021-10-13 23:13:00,,0818.2,5.00,0.00,26.0,25.2,00.0,35.2,27.8,10.4,0000.0,0004.79,0001.77,0001.26
2021-10-13 23:14:00,,0818.2,4.98,0.00,26.0,25.2,00.0,35.2,27.8,10.5,0000.0,0004.09,0001.74,0001.27
2021-10-13 23:15:00,,0818.2,5.00,0.00,26.0,25.2,00.0,35.1,27.8,10.4,0000.0,0003.55,0001.71,0001.28
2021-10-13 23:16:00,,0818.3,4.99,0.00,26.0,25.2,00.0,35.1,27.8,10.3,0000.0,0003.58,0001.73,0001.30
2021-10-13 23:17:00,,0818.1,4.98,0.00,26.0,25.2,00.0,35.1,27.7,10.3,0000.0,0003.69,0001.79,0001.32
2021-10-13 23:18:00,,0818.1,5.01,0.00,26.0,25.2,00.0,35.1,27.8,10.2,0000.0,0004.25,0001.81,0001.33
2021-10-13 23:19:00,,0818.1,5.01,0.00,26.0,25.2,00.0,35.1,27.8,10.2,0000.0,0004.32,0001.84,0001.35
2021-10-13 23:20:00,,0818.3,4.99,0.00,26.1,25.2,00.0,35.1,27.9,10.2,0000.0,0003.84,0001.82,0001.35
2021-10-13 23:21:00,,0818.3,4.99,0.00,26.1,25.2,00.0,35.1,27.9,10.2,0000.0,0003.86,0001.80,0001.36
2021-10-13 23:22:00,,0818.2,5.00,0.00,26.0,25.2,00.0,35.1,28.0,10.3,0000.0,0003.88,0001.81,0001.37
2021-10-13 23:23:00,,0818.2,5.00,0.00,26.0,25.2,00.0,35.1,27.9,10.3,0000.0,0003.98,0001.86,0001.38
2021-10-13 23:24:00,,0818.3,4.99,0.00,26.0,25.2,00.0,35.1,27.8,10.3,0000.0,0004.03,0001.87,0001.37
2021-10-13 23:25:00,,0818.4,5.01,0.00,26.0,25.2,00.0,35.1,27.7,10.3,0000.0,0004.67,0001.87,0001.37
2021-10-13 23:26:00,,0818.3,5.01,0.00,26.0,25.2,00.0,35.1,27.7,10.4,0000.0,0004.79,0001.87,0001.37
2021-10-13 23:27:00,,0818.3,5.00,0.00,26.0,25.2,00.0,35.1,27.8,10.4,0000.0,0004.81,0001.86,0001.35
2021-10-13 23:28:00,,0818.5,4.98,0.00,26.0,25.2,00.0,35.1,27.8,10.4,0000.0,0004.71,0001.80,0001.34
2021-10-13 23:29:00,,0818.4,5.00,0.00,26.0,25.2,00.0,35.1,27.8,10.4,0000.0,0004.18,0001.75,0001.34
2021-10-13 23:30:00,,0818.4,5.00,0.00,26.1,25.2,00.0,35.1,27.8,10.5,0000.0,0004.11,0001.70,0001.32
2021-10-13 23:31:00,,0818.4,5.01,0.00,26.1,25.2,00.0,35.1,27.8,10.4,0000.0,0003.72,0001.69,0001.31
2021-10-13 23:32:00,,0818.4,5.00,0.00,26.1,25.2,00.0,35.1,27.8,10.4,0000.0,0003.45,0001.68,0001.31
2021-10-13 23:33:00,,0818.4,5.00,0.00,26.1,25.2,00.0,35.1,27.9,10.2,0000.0,0003.32,0001.63,0001.30
2021-10-13 23:34:00,,0818.4,5.02,0.00,26.1,25.2,00.0,35.1,27.9,10.2,0000.0,0003.19,0001.58,0001.31
2021-10-13 23:35:00,,0818.4,4.98,0.00,26.1,25.2,00.0,35.1,27.8,10.3,0000.0,0003.16,0001.57,0001.31
2021-10-13 23:36:00,,0818.4,5.01,0.00,26.1,25.2,00.0,35.1,27.9,10.2,0000.0,0002.44,0001.52,0001.30
2021-10-13 23:37:00,,0818.4,4.99,0.00,26.1,25.2,00.0,35.2,27.9,10.3,0000.0,0002.29,0001.52,0001.29
2021-10-13 23:38:00,,0818.4,5.00,0.00,26.1,25.2,00.0,35.2,27.8,10.2,0000.0,0002.29,0001.54,0001.31
2021-10-13 23:39:00,,0818.4,5.00,0.00,26.1,25.2,00.0,35.2,27.8,10.2,0000.0,0002.32,0001.57,0001.31
2021-10-13 23:40:00,,0818.4,4.98,0.00,26.1,25.2,00.0,35.2,27.8,10.3,0000.0,0002.19,0001.58,0001.32
2021-10-13 23:41:00,,0818.4,4.99,0.00,26.1,25.2,00.0,35.2,27.8,10.2,0000.0,0002.18,0001.58,0001.33
2021-10-13 23:42:00,,0818.4,5.00,0.00,26.1,25.2,00.0,35.2,27.8,10.1,0000.0,0002.21,0001.62,0001.33
2021-10-13 23:43:00,,0818.5,5.00,0.00,26.1,25.2,00.0,35.2,27.8,10.1,0000.0,0002.31,0001.65,0001.33
2021-10-13 23:44:00,,0818.5,5.00,0.00,26.1,25.2,00.0,35.2,27.8,10.2,0000.0,0002.31,0001.66,0001.34
2021-10-13 23:45:00,,0818.5,5.01,0.00,26.1,25.2,00.0,35.2,27.9,10.3,0000.0,0002.37,0001.68,0001.33
2021-10-13 23:46:00,,0818.5,5.00,0.00,26.1,25.1,00.0,35.2,27.8,10.2,0000.0,0002.37,0001.69,0001.32
2021-10-13 23:47:00,,0818.6,5.00,0.00,26.1,25.2,00.0,35.2,27.9,10.2,0000.0,0002.50,0001.75,0001.34
2021-10-13 23:48:00,,0818.7,4.99,0.00,26.1,25.2,00.0,35.2,27.9,10.3,0000.0,0002.50,0001.76,0001.34
2021-10-13 23:49:00,,0818.7,5.01,0.00,26.1,25.2,00.0,35.2,27.9,10.3,0000.0,0002.47,0001.75,0001.33
2021-10-13 23:50:00,,0818.7,4.99,0.00,26.1,25.2,00.0,35.2,27.9,10.2,0000.0,0002.53,0001.77,0001.33
2021-10-13 23:51:00,,0818.8,5.01,0.00,26.1,25.2,00.0,35.2,27.9,10.1,0000.0,0002.59,0001.78,0001.33
2021-10-13 23:52:00,,0818.7,4.99,0.00,26.1,25.2,00.0,35.2,27.9,10.2,0000.0,0002.55,0001.77,0001.33
2021-10-13 23:53:00,,0818.7,5.00,0.00,26.1,25.2,00.0,35.2,27.9,10.1,0000.0,0002.44,0001.72,0001.32
2021-10-13 23:54:00,,0818.8,5.01,0.00,26.1,25.1,00.0,35.2,27.9,10.1,0000.0,0002.31,0001.68,0001.33
2021-10-13 23:55:00,,0818.7,5.00,0.00,26.1,25.1,00.0,35.2,27.8,10.1,0000.0,0002.38,0001.72,0001.34
2021-10-13 23:56:00,,0818.7,4.99,0.00,26.1,25.1,00.0,35.2,27.9,10.1,0000.0,0002.45,0001.75,0001.35
2021-10-13 23:57:00,,0818.6,5.00,0.00,26.1,25.1,00.0,35.2,27.9,10.0,0000.0,0002.48,0001.76,0001.36
2021-10-13 23:58:00,,0818.6,5.00,0.00,26.1,25.1,00.0,35.2,27.9,10.0,0000.0,0002.43,0001.73,0001.36
2021-10-13 23:59:00,,0818.7,5.01,0.00,26.1,25.1,00.0,35.2,27.9,10.0,0000.0,0002.49,0001.75,0001.37
